Погода в Писаревке

Россия / Воронежская область     49°53′03″N   40°10′52″E
темп.,
°C
ветер,
м/с
пор.,
м/с
влажн.,
%
обл.,
%
осадки,
мм/ч
давл.,
гПа
погр.,
м
4 марта, чт
чт400:00−2з410800 0.0 1020326
03:00−1зюз612859 0.0 1019397
06:00−1зюз7138971 0.0 1018514
09:00+1зюз8138077 0.0 1016740
12:00+4зюз9135941 0.0 10141090
15:00+6зюз9145621 0.0 10121154
18:00+4юз716680 0.0 1009555
21:00+3юз919770 0.0 1008630
5 марта, пт
пт500:00+4зюз9198155 0.0 1008747
03:00+3зюз8158677 0.0 1007626
06:00+3зюз71394100 0.3 1008523
09:00+3зюз51096100 1.1 1009551
12:00+4з4889100 0.8 1010681
15:00+3з4887100 1.3 1011642
18:00+2ссз2486100 0.1 1011316
21:00+1з0198100 0.9 101383
6 марта, сб
сб600:000св3498100 0.8 1012204
03:000св4698100 2.6 1011326
06:00−2св5997100 2.2 1011523
09:00−2ссв6895100 3.7 1013516
12:00−1ссв4594100 0.7 1014496
15:000с2375100 1.1 1015814
18:00−2с2396100 1.9 1016259
21:00−3зсз61191100 4.8 1018698
7 марта, вс
вс700:00−5сз6128498 1.1 1019559
03:00−6зсз4108899 1.2 1020432
06:00−7зсз499228 0.0 1021261
09:00−5з698015 0.0 1021668
12:00−2зюз7116852 0.0 10191068
15:00−1зюз8146376 0.0 10161257
18:00−1юз81663100 0.0 1013774
21:00−1зюз8176791 0.0 1012829
8 марта, пн
пн800:00−2зюз817707 0.0 1010687
03:00−2зюз8167427 0.0 1009684
06:00−2зюз7158089 0.0 1008780
09:00−1зюз8148089 0.0 1008965
12:000з81188100 0.1 10091053
15:00+1зсз6980100 0.5 10101089
18:00−1зсз3775100 0.3 1011158
21:00−4св238298 0.3 101361